Tracking 17138 objects as of 8-July-2015
HD Live streaming from Space Station

NSS 10 (AMC-12)

Track NSS 10 (AMC-12) now!
NSS 10 (AMC-12) is classified as:


NORAD ID: 28526
Int'l Code: 2005-003A
Perigee: 35,780.7 km
Apogee: 35,807.0 km
Inclination: 0.0 °
Period: 1,436.1 minutes
Semi major axis: 42164 km
RCS: 8.2875 m2 (large)
Launch date: February 3, 2005
Source: SOCIETE EUROPEENNE DES SATELLITES (SES)

72 C-band transponders.
Your satellite tracking list
Your tracking list is empty





NASA's NSSDC Master Catalog

Two Line Element Set (TLE):
1 28526U 05003A   15187.27129524 -.00000262  00000-0  00000+0 0  9995
2 28526 000.0219 342.4384 0003119 130.5613 231.1883 01.00271395 38216

Source of the keplerian elements: AFSPC

N2YO: 211